Find NOAA 11

NORAD ID: 19531 Int'l Des: 1988-089 Owner: NOAA Country: US operational
LEOCIRCULARRETROGRADESSO

实时位置

正在加载3D地球...

关于 NOAA 11

正在加载描述...

即将过境

Passes for default location (London). Set your location on the main map for personalized predictions.

高度历史

Loading altitude history...

两行轨道根数

1 19531U 88089A 26105.81763623 .00000022 00000-0 32469-4 0 9994
2 19531 98.6152 53.6192 0012042 114.5440 245.6991 14.15828891938650
Epoch: Apr 15, 2026 • Age: 14 hours

当前状态

高度 842.2 km
速度 7.44 km/s
星下点 34.25°N, 63.43°E
发射日期 Sep 24, 1988
运行时间 37.5 years
类型 weather

技术详情

分类 Payload
质量 1030.00 kg
干质量 1030.00 kg
总质量 1712.00 kg
长度 4.20 m
直径 1.90 m
跨度 8.00 m
形状 Box + Pan
制造商 GEEW
平台类型 ATN
阶段状态 In Orbit
所有者/国家 NOAA/US

Most Searched